This demonstration page uses our WeatherBlox Daily Observations layout. Learn more.

Left ArrowRight Arrow

39.92423, -83.80882

Hourly Observations for July 7, 2019

Temp ( °F °C ) Dew Point ( °F °C ) Humidity (%) Winds ( mph kmh ) Pressure ( in mb ) Visibility ( mi km ) Precip ( " mm )
12:56 am 00:56 Clear with Mist and Fog 73 22.8 73 22.8 100 100 W 6 9 29.95 1014 4 6.43736 N/A
1:56 am 01:56 Mostly Clear with Mist and Fog 73 22.8 73 22.8 100 100 N N/A 29.93 1014 4 6.43736 N/A
2:10 am 02:10 Mostly Cloudy with Mist and Fog 73 23 73 23 100 100 N N/A 29.91 1013 4 6.43736 N/A
2:56 am 02:56 Mostly Cloudy with Mist and Fog 73 22.8 73 22.8 100 100 W 3 6 29.93 1014 3 4.82802 N/A
3:07 am 03:07 Partly Cloudy with Mist and Fog 73 23 73 23 100 100 N N/A 29.92 1013 3 4.82802 N/A
3:15 am 03:15 Mostly Cloudy with Mist and Fog 72 22 72 22 100 100 N N/A 29.92 1013 2.5 4.02335 N/A
3:23 am 03:23 Mostly Cloudy with Mist and Fog 72 22 72 22 100 100 N N/A 29.92 1013 2.5 4.02335 N/A
3:27 am 03:27 Mostly Cloudy with Mist and Fog 72 22 72 22 100 100 N N/A 29.92 1013 1 1.60934 N/A
3:30 am 03:30 Mostly Cloudy with Fog 72 22 72 22 100 100 N N/A 29.91 1013 0.5 0.80467 N/A
3:40 am 03:40 Cloudy with Fog 72 22 72 22 100 100 N N/A 29.91 1013 0.25 0.402335 N/A
3:56 am 03:56 Cloudy with Fog 72 22.2 72 22.2 100 100 N N/A 29.93 1014 0.25 0.402335 N/A
4:04 am 04:04 Cloudy with Fog 72 22 72 22 100 100 N N/A 29.91 1013 0.5 0.80467 N/A
4:15 am 04:15 Cloudy with Mist and Fog 73 23 73 23 100 100 N N/A 29.91 1013 1 1.60934 N/A
4:30 am 04:30 Cloudy with Mist and Fog 72 22 72 22 100 100 N N/A 29.91 1013 1 1.60934 N/A
4:37 am 04:37 Cloudy with Mist and Fog 73 23 73 23 100 100 NW 3 6 29.91 1013 1.25 2.011675 N/A
4:41 am 04:41 Cloudy with Mist and Fog 73 23 73 23 100 100 NW 3 6 29.91 1013 0.75 1.207005 N/A
4:49 am 04:49 Cloudy with Fog 73 23 73 23 100 100 NNW 5 7 29.91 1013 0.25 0.402335 N/A
4:56 am 04:56 Cloudy with Fog 73 22.8 73 22.8 100 100 NNW 3 6 29.92 1013 0.25 0.402335 N/A
5:11 am 05:11 Cloudy with Mist and Fog 73 23 73 23 100 100 NNW 3 6 29.91 1013 0.75 1.207005 N/A
5:15 am 05:15 Cloudy with Mist and Fog 73 23 73 23 100 100 NNW 5 7 29.91 1013 1.25 2.011675 N/A
5:56 am 05:56 Cloudy with Mist and Fog 73 22.8 73 22.8 100 100 NNE 5 7 29.93 1014 1.5 2.41401 N/A
6:36 am 06:36 Cloudy with Mist and Fog 73 23 73 23 100 100 ENE 5 7 29.92 1013 2 3.21868 N/A
6:44 am 06:44 Mostly Cloudy with Mist and Fog 72 22 72 22 100 100 ENE 3 6 29.92 1013 1.75 2.816345 N/A
6:56 am 06:56 Mostly Cloudy with Mist and Fog 73 22.8 73 22.8 100 100 N N/A 29.94 1014 1.75 2.816345 N/A
7:03 am 07:03 Mostly Cloudy with Mist and Fog 73 23 73 23 100 100 NNE 3 6 29.92 1013 2 3.21868 N/A
7:36 am 07:36 Cloudy with Mist and Fog 73 23 73 23 100 100 NE 5 7 29.93 1014 3 4.82802 N/A
7:56 am 07:56 Cloudy with Mist and Fog 74 23.3 74 23.3 100 100 E 5 7 29.95 1014 3 4.82802 N/A
8:09 am 08:09 Mostly Cloudy with Mist and Fog 75 24 75 24 100 100 ENE 7 11 29.93 1013 4 6.43736 N/A
8:19 am 08:19 Partly Cloudy with Mist and Fog 75 24 75 24 100 100 ENE 7 11 29.93 1013 5 8.0467 N/A
8:54 am 08:54 Mostly Cloudy 77 25 73 23 89 89 E 7 11 29.92 1013 10 16.0934 N/A
8:56 am 08:56 Mostly Cloudy 77 25 74 23.3 90 90 ENE 6 9 29.95 1014 10 16.0934 N/A
9:56 am 09:56 Mostly Cloudy 78 25.6 73 22.8 85 85 ENE 6 9 29.96 1015 10 16.0934 N/A
10:13 am 10:13 Mostly Cloudy 79 26 73 23 84 84 VRB 5 7 29.93 1014 10 16.0934 N/A
10:35 am 10:35 Mostly Cloudy 79 26 73 23 84 84 N N/A 29.93 1014 10 16.0934 N/A
10:56 am 10:56 Partly Cloudy 79 26.1 74 23.3 85 85 VRB 5 7 29.96 1015 10 16.0934 N/A
11:25 am 11:25 Mostly Cloudy 81 27 73 23 79 79 N N/A 29.93 1013 10 16.0934 N/A
11:56 am 11:56 Cloudy 82 27.8 73 22.8 74 74 NW 3 6 29.96 1015 10 16.0934 N/A
12:04 pm 12:04 Cloudy 81 27 73 23 79 79 NNE 6 9 29.93 1013 10 16.0934 N/A
12:19 pm 12:19 Cloudy 81 27 73 23 79 79 N N/A 29.93 1013 10 16.0934 N/A
12:56 pm 12:56 Mostly Cloudy 83 28.3 74 23.3 74 74 WNW 5 7 29.95 1014 10 16.0934 N/A
1:56 pm 13:56 Partly Cloudy 85 29.4 75 23.9 72 72 N 8 13 29.92 1013 10 16.0934 N/A
2:56 pm 14:56 Mostly Cloudy 81 27.2 72 22.2 74 74 WSW 14 22 29.92 1013 10 16.0934 N/A
3:12 pm 15:12 Cloudy 79 26 73 23 84 84 WSW 8 13 29.9 1013 10 16.0934 N/A
3:56 pm 15:56 Cloudy 81 27.2 73 22.8 77 77 W 8 13 29.92 1013 10 16.0934 N/A
4:28 pm 16:28 Cloudy 82 28 73 23 74 74 NW 7 11 29.88 1012 10 16.0934 N/A
4:56 pm 16:56 Cloudy 81 27.2 73 22.8 77 77 N 13 20 29.91 1013 10 16.0934 N/A
5:56 pm 17:56 Cloudy 80 26.7 72 22.2 76 76 N 13 20 29.92 1013 10 16.0934 N/A
6:13 pm 18:13 Cloudy 79 26 72 22 79 79 NNE 13 20 29.89 1012 10 16.0934 N/A
6:56 pm 18:56 Mostly Sunny 78 25.6 71 21.7 79 79 N 12 19 29.91 1013 10 16.0934 N/A
7:56 pm 19:56 Sunny 77 25 71 21.7 82 82 NNE 15 24 29.92 1013 10 16.0934 N/A
8:40 pm 20:40 Mostly Cloudy 75 24 70 21 83 83 NNE 15 24 29.92 1013 10 16.0934 N/A
8:56 pm 20:56 Cloudy 74 23.3 69 20.6 85 85 NNE 14 22 29.94 1014 10 16.0934 N/A
9:56 pm 21:56 Cloudy 73 22.8 68 20 84 84 N 10 17 29.94 1014 10 16.0934 N/A
10:33 pm 22:33 Partly Cloudy 72 22 66 19 83 83 NNE 9 15 29.94 1014 10 16.0934 N/A
10:56 pm 22:56 Clear 71 21.7 66 18.9 84 84 NNE 7 11 29.97 1015 10 16.0934 N/A
11:56 pm 23:56 Clear 69 20.6 66 18.9 90 90 NNE 6 9 29.96 1015 10 16.0934 N/A

Powered by AerisWeather